Jonkoping, Sweden

5:44 PM CEST on June 28, 2017 (GMT +0200)
Jonkoping

Weather History for ESGJ - March, 2013

Change the Weather History Date:

Sunday, March 31, 2013

  Actual Average Record
Temperature  
Mean Temperature 22 °F -  
Max Temperature 35 °F 47 °F - ()
Min Temperature 8 °F 30 °F - ()
Degree Days  
Heating Degree Days 44    
Moisture  
Dew Point 13 °F    
Average Humidity 65    
Maximum Humidity 100    
Minimum Humidity 22    
Precipitation  
Precipitation 0.00 in 0.05 in - ()
Sea Level Pressure  
Sea Level Pressure 29.92 in    
Wind  
Wind Speed 3 mph ()    
Max Wind Speed 13 mph    
Max Gust Speed -    
Visibility 6.2 miles    
Events      
T = Trace of Precipitation, MM = Missing Value Source: Averaged Metar Reports

Daily Weather History Graph

Daily Weather History Graph

Search for Another Location

Airport or City:

Trip Planner

Search our weather history database for the weather conditions in past years. The results will help you decide how hot, cold, wet, or windy it might be!

Date:

Astronomy

Mar. 31, 2013 Rise Set
Actual Time 6:34 AM CEST 7:42 PM CEST
Civil Twilight 5:54 AM CEST 8:22 PM CEST
Nautical Twilight 5:06 AM CEST 9:11 PM CEST
Astronomical Twilight 4:11 AM CEST 10:06 PM CEST
Moon 12:21 AM CET (3/31) 8:11 AM CEST (3/31)
Length of Visible Light 14h 27m
Length of Day
13h 07m
Waning Gibbous, 80% of the Moon is Illuminated
Mar 31
Waning Gibbous
Apr 3
Last Quarter
Apr 10
New
Apr 18
First Quarter
Apr 25
Full

Hourly Weather History & Observations

Time (CEST) Temp. Windchill Dew Point Humidity Pressure Visibility Wind Dir Wind Speed Gust Speed Precip Events Conditions
12:00 AM 16 °F - 13 °F 85% 29.95 in 31 mi Calm Calm - -  
12:20 AM 15.8 °F - 14.0 °F 93% 29.89 in 6.2 mi Calm Calm - N/A   Unknown
12:50 AM 14.0 °F - 12.2 °F 93% 29.89 in 6.2 mi Calm Calm - N/A   Unknown
1:00 AM 15 °F - 13 °F 85% 29.96 in 31 mi Calm Calm - -  
1:20 AM 14.0 °F - 12.2 °F 93% 29.89 in 6.2 mi Calm Calm - N/A   Unknown
1:50 AM 14.0 °F - 12.2 °F 93% 29.89 in 6.2 mi Calm Calm - N/A   Unknown
3:00 AM 13 °F - 11 °F 90% 29.96 in 31 mi West 2.2 mph - -  
3:20 AM 12.2 °F - 10.4 °F 92% 29.89 in 6.2 mi Calm Calm - N/A   Unknown
3:50 AM 12.2 °F - 10.4 °F 92% 29.89 in 6.2 mi Calm Calm - N/A   Unknown
4:00 AM 11 °F - 10 °F 94% 29.97 in 31 mi Calm Calm - -  
4:20 AM 10.4 °F - 10.4 °F 100% 29.89 in 6.2 mi Calm Calm - N/A   Unknown
4:50 AM 12.2 °F - 10.4 °F 92% 29.89 in 6.2 mi Calm Calm - N/A   Unknown
5:20 AM 10.4 °F - 8.6 °F 92% 29.89 in 6.2 mi Calm Calm - N/A   Unknown
5:50 AM 8.6 °F - 6.8 °F 92% 29.92 in 6.2 mi Calm Calm - N/A   Unknown
6:00 AM 10 °F - 8 °F 88% 29.97 in 31 mi Calm Calm - -  
6:20 AM 8.6 °F - 8.6 °F 100% 29.92 in 6.2 mi Calm Calm - N/A   Unknown
6:50 AM 8.6 °F - 6.8 °F 92% 29.92 in 6.2 mi Calm Calm - N/A   Unknown
7:00 AM 9 °F - 7 °F 85% 29.98 in 31 mi Calm Calm - -  
7:20 AM 8.6 °F - 6.8 °F 92% 29.92 in 6.2 mi Calm Calm - N/A   Unknown
7:50 AM 14.0 °F - 12.2 °F 93% 29.92 in 6.2 mi Calm Calm - N/A   Unknown
8:00 AM 14 °F - 11 °F 80% 29.98 in 28 mi Calm Calm - -  
8:20 AM 17.6 °F - 14.0 °F 86% 29.92 in 6.2 mi Calm Calm - N/A   Unknown
8:50 AM 21.2 °F - 17.6 °F 86% 29.92 in 6.2 mi Calm Calm - N/A   Unknown
9:00 AM 25 °F - 19 °F 70% 29.97 in 31 mi Calm Calm - -  
9:20 AM 26.6 °F - 17.6 °F 69% 29.92 in 6.2 mi Calm Calm - N/A   Unknown
9:50 AM 28.4 °F 23.3 °F 17.6 °F 64% 29.92 in 6.2 mi North 4.6 mph - N/A   Unknown
10:00 AM 30 °F - 17 °F 44% 29.97 in 31 mi North 6.7 mph - -  
10:20 AM 30.2 °F 24.3 °F 17.6 °F 60% 29.92 in 6.2 mi North 5.8 mph - N/A   Unknown
10:50 AM 32.0 °F 27.5 °F 15.8 °F 51% 29.92 in 6.2 mi North 4.6 mph - N/A   Unknown
11:20 AM 33.8 °F 28.6 °F 17.6 °F 52% 29.92 in 6.2 mi North 5.8 mph - N/A   Unknown
11:50 AM 33.8 °F 28.6 °F 15.8 °F 48% 29.92 in 6.2 mi North 5.8 mph - N/A   Unknown
12:00 PM 34 °F - 16 °F 33% 29.97 in 28 mi North 6.7 mph - -  
12:20 PM 33.8 °F 26.4 °F 15.8 °F 48% 29.92 in 6.2 mi ENE 9.2 mph - N/A   Unknown
12:50 PM 33.8 °F 26.4 °F 17.6 °F 52% 29.92 in 6.2 mi NE 9.2 mph - N/A   Unknown
1:00 PM 34 °F - 15 °F 32% 29.97 in 28 mi NNE 8.9 mph - -  
1:20 PM 35.6 °F 28.6 °F 15.8 °F 44% 29.92 in 6.2 mi NNE 9.2 mph - N/A   Unknown
1:50 PM 35.6 °F 27.5 °F 15.8 °F 44% 29.92 in 6.2 mi NE 11.5 mph - N/A   Unknown
2:00 PM 35 °F - 14 °F 28% 29.97 in 25 mi NE 8.9 mph - -  
2:20 PM 35.6 °F 27.5 °F 15.8 °F 44% 29.92 in 6.2 mi North 11.5 mph - N/A   Unknown
2:50 PM 33.8 °F 24.8 °F 15.8 °F 48% 29.92 in 6.2 mi North 12.7 mph - N/A   Unknown
3:00 PM 35 °F - 14 °F 28% 29.96 in 25 mi North 11.2 mph - -  
3:20 PM 35.6 °F 27.1 °F 12.2 °F 38% 29.92 in 6.2 mi North 12.7 mph - N/A   Unknown
3:50 PM 35.6 °F 27.1 °F 8.6 °F 33% 29.92 in 6.2 mi NNE 12.7 mph - N/A   Unknown
4:00 PM 36 °F - 11 °F 22% 29.95 in 28 mi NNE 11.2 mph - -  
4:20 PM 35.6 °F 27.1 °F 10.4 °F 35% 29.92 in 6.2 mi NNE 12.7 mph - N/A   Unknown
4:50 PM 35.6 °F 27.1 °F 12.2 °F 38% 29.92 in 6.2 mi North 12.7 mph - N/A   Unknown
5:20 PM 35.6 °F 27.1 °F 14.0 °F 41% 29.89 in 6.2 mi North 12.7 mph - N/A   Unknown
5:50 PM 35.6 °F 28.6 °F 14.0 °F 41% 29.89 in 6.2 mi North 9.2 mph - N/A   Unknown
6:00 PM 35 °F - 11 °F 23% 29.95 in 31 mi NNE 8.9 mph - -  
6:20 PM 33.8 °F 27.0 °F 14.0 °F 44% 29.89 in 6.2 mi North 8.1 mph - N/A   Unknown
6:50 PM 33.8 °F 27.0 °F 15.8 °F 48% 29.89 in 6.2 mi North 8.1 mph - N/A   Unknown
7:00 PM 32 °F - 16 °F 37% 29.94 in 31 mi North 4.5 mph - -  
7:20 PM 32.0 °F 26.4 °F 15.8 °F 51% 29.89 in 6.2 mi North 5.8 mph - N/A   Unknown
7:50 PM 30.2 °F 25.4 °F 12.2 °F 47% 29.89 in 6.2 mi NNW 4.6 mph - N/A   Unknown
8:00 PM 29 °F - 13 °F 37% 29.95 in 31 mi Calm Calm - -  
8:20 PM 24.8 °F - 15.8 °F 69% 29.89 in 6.2 mi Variable 1.2 mph - N/A   Unknown
8:50 PM 24.8 °F - 14.0 °F 64% 29.92 in 6.2 mi SSW 2.3 mph - N/A   Unknown
9:00 PM 24 °F - 14 °F 53% 29.96 in 31 mi Calm Calm - -  
9:20 PM 23.0 °F - 14.0 °F 68% 29.92 in 6.2 mi Calm Calm - N/A   Unknown
9:50 PM 21.2 °F - 14.0 °F 74% 29.92 in 6.2 mi Calm Calm - N/A   Unknown
10:00 PM 21 °F - 14 °F 63% 29.97 in 31 mi Calm Calm - -  
10:20 PM 19.4 °F - 14.0 °F 80% 29.92 in 6.2 mi Calm Calm - N/A   Unknown
10:50 PM 19.4 °F - 14.0 °F 80% 29.92 in 6.2 mi Calm Calm - N/A   Unknown
11:20 PM 17.6 °F - 12.2 °F 79% 29.92 in 6.2 mi Calm Calm - N/A   Unknown
11:50 PM 17.6 °F - 12.2 °F 79% 29.92 in 6.2 mi SSW 1.2 mph - N/A   Unknown
12:00 AM 16 °F - 12 °F 77% 29.97 in 31 mi Calm Calm - -  
12:20 AM 15.8 °F - 12.2 °F 86% 29.89 in 6.2 mi SSW 1.2 mph - N/A   Unknown
12:50 AM 14.0 °F - 12.2 °F 93% 29.89 in 6.2 mi Variable 2.3 mph - N/A   Unknown